Vertical_Velocity
3 1 1 2 1 0 1 0 1 0 -0 0 -0 -1 -0 1 2 1 -1 -1 0 -2 -3 0 -0 0 2 -0 2 3 -2 1 -0 1 -0 -2 -1 0 -2 -3 -5 1 1
2 3 3 0 -0 2 -0 -2 0 1 2 0 1 -1 -0 -0 1 -1 -1 -1 1 2 -0 -2 0 -0 2 4 0 3 4 -2 -3 -1 -1 -1 -2 -5 -2 -4 -2 -5 2
0 3 3 0 -0 -0 1 1 1 -1 -2 1 -0 3 -1 -0 0 1 0 3 -2 -1 -0 -0 -1 -0 -1 -0 0 1 2 2 2 0 -0 -1 -3 -2 -1 -2 3 0 -5
-3 0 2 1 -1 1 2 -1 0 -0 -1 -1 1 1 -0 -2 -0 1 -1 -1 -0 1 -3 1 1 -1 -4 -2 0 -2 -3 2 3 -2 -0 1 3 0 -1 -1 -4 1 -2
-0 1 4 -3 -2 -0 3 1 2 0 2 -1 -0 -0 -1 0 -1 1 1 -2 -1 1 2 2 1 0 -1 -1 1 -3 1 -7 -5 4 1 -0 1 1 -5 3 -2 -3 -6
1 -3 -1 3 2 -4 4 -1 2 0 2 1 -0 -1 -1 0 1 2 4 -2 -1 -4 -1 -2 -0 -0 1 -2 -0 -2 -3 2 4 0 -1 -0 -1 3 -0 -0 0 2 5
3 -2 6 -1 1 -2 3 1 -1 -0 -2 3 -0 0 3 0 0 4 2 3 -2 -1 -0 2 1 -1 1 -1 -1 -2 2 -2 -6 3 -2 -0 0 1 3 -5 2 -1 8
0 5 2 3 -1 3 3 4 -3 3 2 2 4 -2 1 3 3 -1 1 -1 -0 0 -3 -1 3 2 -0 3 -0 5 3 2 -1 -1 1 -4 1 -3 3 5 5 -1 -1
2 2 2 -2 16 11 4 7 4 9 6 5 -0 -1 1 5 4 2 4 3 -1 0 -1 -2 -3 1 1 -3 -1 -3 2 1 -3 -1 0 3 -2 2 9 -2 -2 2 -1
5 3 -3 4 11 8 3 6 9 9 10 5 3 4 1 -1 -3 -2 -0 -2 1 -1 -5 -0 1 -1 -2 0 -3 -2 2 -3 2 -5 -4 0 -3 0 -2 -2 1 4 -1
-3 17 4 -19 7 29 9 2 5 9 -2 3 2 2 -2 -12 -2 -2 5 -8 1 4 -1 -9 -6 1 0 -2 1 1 1 -5 3 -0 -1 2 0 -2 0 -1 6 -0 2
-17 -13 -10 -8 -22 -11 4 -9 11 35 1 -4 -0 4 2 -2 -7 -7 -4 -2 -2 -4 1 1 0 -5 -0 -1 -1 -3 -0 -3 -4 3 1 -2 -0 -2 -0 -2 5 -1 1
-4 -10 -11 -4 13 16 -2 -5 -10 4 22 6 -4 5 2 -3 -1 6 2 -1 -2 -6 -5 2 -2 -2 -5 -1 3 2 -2 6 -3 -1 5 -2 -2 -2 -4 -6 -1 2 -1
1 -5 5 4 -10 -1 -1 -9 -10 -6 6 6 -6 -8 -4 -1 -0 -1 2 3 -1 0 -3 2 3 -3 1 -2 -3 3 2 -5 -4 -1 -6 2 2 1 -4 -3 -0 -3 4
3 4 8 4 9 -3 5 -3 2 -4 -1 -7 -12 -5 1 2 -1 -4 -2 -4 -5 0 6 -3 3 -0 3 0 -1 0 2 -1 -2 -1 -3 4 2 6 -4 0 1 -3 2
-6 2 -1 1 3 2 -2 -5 6 3 1 1 -1 -1 -1 -2 -3 -4 -6 0 2 -3 -2 0 1 -1 2 -3 0 -1 -1 -1 3 -0 -2 0 -3 3 -2 1 3 1 0
1 3 -2 7 0 -1 -6 -4 0 1 -1 -5 0 -1 1 1 1 -3 -4 -4 -0 1 -4 -5 -2 -1 0 -0 4 -5 -1 -2 -0 -4 6 -1 2 1 -0 -1 2 1 1
-2 1 -4 5 1 -1 0 0 -4 -1 -1 0 -0 -2 2 -2 -2 -2 0 -2 2 -6 -4 -1 1 1 -4 2 1 -3 7 1 -2 3 -1 4 2 0 -1 1 2 2 1
1 3 6 3 1 2 -2 5 -1 1 3 -6 -1 4 -6 -4 -2 3 -9 -1 1 6 0 -0 1 -3 -3 1 0 5 -1 0 -2 1 0 0 -2 -2 2 -2 0 -0 2
-4 0 1 6 4 5 4 0 0 -3 -3 1 0 -6 3 -1 -1 6 1 2 -3 -2 -0 -4 -2 0 -3 1 -1 -0 -1 1 0 -1 -2 0 -1 0 2 4 2 -1 1
2 -0 -2 4 6 -0 0 -3 1 3 3 -4 0 1 -6 -0 4 3 -4 -8 4 -2 -3 -2 2 -5 2 3 -2 -4 2 2 -0 -2 1 1 1 -2 3 -1 2 -1 2
-4 1 -4 -4 4 6 1 6 0 -4 -3 1 -8 -8 1 3 -0 -5 3 4 2 -1 2 -2 -7 3 2 -3 -2 1 4 -0 -2 -1 0 2 1 1 3 2 1 -1 -1
-3 -2 6 -1 -4 0 6 5 6 -2 0 2 7 4 -4 -4 1 4 1 -2 3 -1 -3 -1 4 -3 1 -2 1 2 -1 -2 2 -1 1 0 2 2 1 -0 0 -0 -1
-1 3 3 9 -5 -1 1 1 4 6 7 4 -2 -7 0 2 -1 -2 -2 -4 -4 -3 -3 -3 -0 1 -0 -0 1 1 -1 -0 1 0 1 0 0 1 2 1 1 1 -1
4 5 3 -5 -2 -1 -3 13 4 2 -7 -6 0 1 -0 -2 -5 -1 -5 2 -1 4 0 1 -1 0 -0 -2 -1 -1 -2 1 0 -0 1 -1 -2 -1 2 1 1 0 -0
1 2 6 5 -3 2 -3 -5 4 1 7 1 -1 -0 11 -10 -2 -2 -1 -1 -6 -1 5 0 -2 -1 -1 -1 -1 -2 -1 -0 1 -1 -1 -0 -2 -3 -1 -1 -3 1 0
Height
3165 3166 3168 3169 3171 3171 3172 3173 3173 3174 3174 3173 3173 3172 3171 3171 3170 3169 3168 3167 3166 3164 3163 3161 3160 3158 3156 3153 3151 3149 3146 3145 3144 3142 3141 3140 3140 3139 3139 3138 3137 3136 3136
3162 3164 3165 3166 3168 3169 3169 3170 3170 3170 3171 3171 3171 3170 3169 3169 3168 3167 3166 3164 3163 3162 3160 3158 3156 3154 3152 3150 3148 3146 3144 3142 3140 3139 3138 3136 3136 3135 3135 3135 3133 3133 3133
3158 3160 3162 3163 3165 3165 3166 3167 3167 3168 3168 3168 3167 3167 3167 3166 3166 3165 3164 3162 3160 3159 3157 3155 3153 3151 3149 3147 3145 3143 3141 3139 3137 3136 3134 3133 3133 3133 3132 3132 3132 3131 3131
3154 3156 3158 3159 3160 3161 3162 3163 3163 3164 3164 3164 3164 3164 3164 3163 3163 3162 3161 3160 3158 3156 3154 3152 3150 3148 3145 3143 3142 3140 3137 3135 3133 3132 3131 3129 3129 3128 3128 3128 3129 3129 3128
3150 3153 3154 3155 3156 3157 3158 3158 3159 3160 3160 3161 3161 3160 3160 3160 3159 3159 3157 3156 3154 3153 3151 3149 3146 3144 3142 3140 3138 3136 3134 3132 3130 3128 3126 3125 3124 3124 3123 3124 3123 3125 3126
3147 3148 3149 3151 3151 3152 3153 3153 3153 3155 3156 3156 3156 3156 3157 3157 3156 3156 3154 3153 3152 3150 3148 3145 3143 3140 3138 3136 3134 3132 3130 3128 3126 3124 3122 3121 3120 3119 3119 3119 3120 3121 3120
3141 3142 3144 3145 3145 3146 3147 3147 3148 3149 3150 3151 3151 3151 3152 3152 3152 3151 3150 3148 3147 3146 3144 3142 3139 3136 3134 3131 3130 3128 3126 3124 3122 3120 3119 3116 3115 3114 3114 3114 3114 3115 3118
3134 3136 3138 3139 3138 3139 3140 3141 3142 3143 3144 3144 3145 3146 3147 3148 3147 3147 3146 3144 3142 3141 3140 3138 3135 3132 3130 3127 3125 3122 3120 3118 3116 3115 3113 3112 3110 3110 3110 3109 3108 3109 3111
3127 3129 3131 3131 3131 3132 3133 3134 3135 3136 3138 3139 3139 3141 3142 3142 3142 3141 3141 3139 3137 3135 3134 3133 3130 3128 3125 3123 3120 3118 3115 3113 3111 3109 3108 3107 3106 3105 3104 3103 3103 3103 3105
3118 3120 3124 3121 3116 3121 3125 3126 3128 3129 3129 3131 3132 3133 3135 3134 3134 3135 3132 3133 3131 3129 3128 3127 3125 3123 3120 3118 3115 3113 3111 3109 3105 3104 3103 3102 3101 3100 3099 3098 3098 3098 3098
3108 3112 3116 3117 3115 3114 3117 3117 3117 3120 3121 3124 3125 3127 3127 3128 3128 3128 3127 3124 3125 3123 3121 3119 3119 3116 3114 3111 3108 3106 3104 3103 3102 3099 3098 3097 3095 3095 3095 3094 3092 3093 3093
3102 3103 3109 3108 3108 3109 3110 3110 3111 3111 3112 3115 3118 3119 3120 3120 3121 3122 3120 3120 3118 3115 3115 3112 3110 3108 3107 3104 3101 3099 3097 3095 3096 3094 3092 3091 3090 3089 3088 3088 3088 3088 3089
3099 3100 3101 3101 3101 3104 3104 3105 3105 3106 3105 3108 3110 3112 3114 3114 3114 3114 3112 3112 3110 3109 3107 3107 3103 3100 3100 3098 3096 3093 3090 3089 3087 3088 3087 3086 3085 3085 3084 3084 3085 3084 3084
3096 3097 3097 3097 3098 3098 3099 3099 3098 3101 3099 3101 3103 3104 3107 3107 3108 3108 3106 3104 3101 3099 3097 3097 3096 3093 3091 3090 3089 3086 3084 3082 3082 3080 3081 3081 3079 3078 3079 3079 3079 3080 3079
3092 3092 3092 3092 3092 3090 3092 3093 3093 3094 3095 3095 3097 3099 3100 3101 3101 3102 3101 3099 3096 3092 3089 3087 3088 3086 3084 3081 3080 3080 3077 3075 3076 3074 3074 3074 3073 3072 3072 3074 3073 3075 3075
3087 3087 3087 3086 3085 3085 3087 3087 3087 3087 3087 3087 3090 3093 3095 3095 3094 3094 3093 3091 3088 3086 3083 3080 3080 3077 3078 3075 3072 3071 3071 3069 3069 3068 3068 3069 3067 3066 3065 3067 3068 3069 3069
3079 3079 3079 3078 3078 3079 3080 3081 3082 3082 3082 3084 3085 3088 3088 3087 3086 3085 3084 3082 3081 3078 3075 3073 3072 3069 3069 3066 3063 3063 3064 3062 3063 3062 3061 3061 3060 3060 3061 3061 3063 3064 3065
3071 3071 3072 3072 3072 3073 3073 3074 3076 3077 3077 3079 3080 3080 3081 3080 3078 3077 3075 3074 3071 3069 3067 3065 3064 3061 3061 3059 3056 3055 3056 3055 3055 3055 3055 3053 3053 3053 3055 3056 3057 3059 3061
3065 3063 3065 3065 3066 3067 3067 3068 3070 3071 3073 3073 3073 3072 3074 3072 3070 3067 3066 3065 3062 3060 3059 3059 3055 3054 3053 3052 3049 3049 3048 3049 3048 3047 3047 3047 3047 3049 3048 3050 3051 3053 3056
3058 3057 3057 3058 3059 3059 3060 3061 3064 3065 3066 3066 3065 3063 3064 3062 3060 3058 3057 3054 3055 3052 3051 3050 3048 3045 3045 3043 3042 3042 3042 3041 3041 3041 3041 3040 3041 3043 3045 3044 3047 3050 3052
3049 3050 3050 3051 3051 3052 3052 3054 3054 3057 3055 3059 3055 3055 3055 3055 3052 3051 3051 3048 3047 3043 3041 3039 3038 3036 3036 3036 3034 3035 3035 3035 3034 3035 3035 3035 3036 3039 3040 3042 3043 3046 3047
3039 3040 3039 3041 3043 3043 3043 3045 3044 3046 3048 3047 3047 3049 3046 3047 3046 3043 3041 3038 3037 3034 3031 3029 3028 3027 3027 3028 3028 3028 3028 3029 3029 3030 3030 3031 3034 3035 3036 3038 3040 3041 3042
3029 3029 3030 3028 3032 3032 3033 3033 3034 3035 3037 3037 3037 3037 3037 3038 3036 3034 3032 3031 3029 3026 3024 3022 3019 3019 3020 3020 3021 3022 3023 3024 3025 3026 3027 3028 3029 3031 3033 3034 3035 3037 3038
3018 3018 3018 3018 3019 3021 3022 3022 3025 3025 3027 3027 3028 3029 3030 3030 3029 3027 3025 3024 3022 3020 3017 3017 3013 3013 3014 3015 3016 3016 3018 3020 3021 3023 3024 3025 3026 3027 3028 3030 3031 3032 3033
3009 3009 3009 3008 3010 3011 3013 3013 3015 3016 3018 3020 3021 3022 3022 3021 3020 3018 3019 3017 3015 3013 3011 3009 3008 3009 3009 3010 3012 3013 3015 3017 3018 3019 3021 3022 3023 3023 3024 3025 3027 3028 3029
2999 2999 2997 2998 3000 3000 3003 3007 3007 3009 3010 3011 3014 3013 3013 3014 3013 3010 3011 3010 3008 3007 3005 3004 3004 3005 3006 3007 3009 3010 3012 3013 3015 3016 3018 3019 3019 3020 3021 3022 3024 3025 3025